Hourly Data Report for September 29, 2017

All times are specified in Local Standard Time (LST). Add 1 hour to adjust for Daylight Saving Time where and when it is observed.

PETAWAWA AWOS 2
ONTARIO

45°57'00.000" N
77°19'00.000" W
130.10 m
6106396
71625
YWA

Download Data

Hourly Data (September 2017)
Hourly Data Report for September 29, 2017
Temp Definition
°C
Dew Point Temp Definition
°C
Rel Hum Definition
%
Wind Dir Definition
10's deg

Wind Spd Definition
km/h
Visibility Definition
km
Stn Press Definition
kPa
Hmdx Definition


Wind Chill Definition


Weather Definition


TIME
00:00 3.4 2.7 95 26 4 14.5 100.23     LegendNANA
01:00 3.3 2.5 94   0 14.5 100.24     LegendNANA
02:00 3.6 2.9 95   0 14.5 100.20     LegendNANA
03:00 3.8 3.1 95 32 4 14.5 100.23     LegendNANA
04:00 2.6 2.4 99 27 6 0.5 100.27     LegendNANA
05:00 1.7 1.4 98 24 4 14.5 100.26     LegendNANA
06:00 3.0 2.7 98 30 4 14.5 100.26     LegendNANA
07:00 4.6 4.4 99 24 4 0.6 100.30     LegendNANA
08:00
09:00 8.2 7.8 97 13 9 14.5 100.28     LegendNANA
10:00 10.1 7.4 83 16 9 14.5 100.29     LegendNANA
11:00 10.7 6.1 73 13 7 14.5 100.27     LegendNANA
12:00 11.3 6.4 72 7 9 14.5 100.23     LegendNANA
13:00 11.4 6.8 73 10 7 14.5 100.24     Rain
14:00 10.8 8.1 83 4 13 14.5 100.24     Rain
15:00 9.7 6.3 79 3 17 14.5 100.26     Rain
16:00 9.3 6.9 85 3 11 12.9 100.30     Rain
17:00 9.1 7.2 88 33 7 14.5 100.36     Rain
18:00 9.0 7.5 90 35 11 14.5 100.43     Rain
19:00 8.6 7.8 95 33 11 11.3 100.49     Rain
20:00 8.7 6.5 86 1 11 14.5 100.56     LegendNANA
21:00 7.9 6.6 92 32 9 14.5 100.59     LegendNANA
22:00 7.6 5.7 88 31 7 14.5 100.63     LegendNANA
23:00 7.6 5.1 84 34 13 14.5 100.68     LegendNANA

Notes on Data Quality.

Legend

  • E = Estimated
  • M = Missing
  • NA = Not Available
  • ‡ = Partner data that is not subject to review by the National Climate Archives
Date modified: